When you browse on this site, cookies collect data to enhance your experience and personalize the content and advertising you see.
Visit our Privacy Policy to learn more. By continuing to use the site, you agree to this use of cookies and data.
  • Em Portugal
  • Lista de países
  • Para 7 dias
  • Temperatura da água
  • Mapa do tempo
  • Widgets de tempo
  • user-avatar
    Iniciar Sessão

    Previsão horária em Poti

    Hoje, 2 Junho, Terça-feira

    Tempo Temperatura Precipitação Vento Pressão Humidade
    00:00 +15°C° 0 mm 2 m/s 758 mmHg 92%
    01:00 +15°C° 0 mm 2 m/s 757 mmHg 93%
    02:00 +14°C° 0 mm 2 m/s 757 mmHg 93%
    03:00 +14°C° 0 mm 2 m/s 757 mmHg 93%
    04:00 +15°C° 0 mm 2 m/s 756 mmHg 92%
    05:00 +15°C° 0 mm 2 m/s 756 mmHg 91%
    06:00 +16°C° 0 mm 1 m/s 755 mmHg 90%
    07:00 +20°C° 0 mm 1 m/s 755 mmHg 81%
    08:00 +22°C° 0 mm 1 m/s 755 mmHg 72%
    09:00 +25°C° 0 mm 1 m/s 755 mmHg 63%
    10:00 +25°C° 0 mm 2 m/s 755 mmHg 62%
    11:00 +25°C° 0 mm 3 m/s 755 mmHg 61%
    12:00 +25°C° 0 mm 4 m/s 755 mmHg 59%
    13:00 +25°C° 0 mm 4 m/s 755 mmHg 60%
    14:00 +24°C° 0 mm 3 m/s 754 mmHg 61%
    15:00 +24°C° 0 mm 3 m/s 754 mmHg 61%
    16:00 +22°C° 0 mm 3 m/s 754 mmHg 64%
    17:00 +21°C° 0 mm 3 m/s 753 mmHg 67%
    18:00 +21°C° 0 mm 3 m/s 753 mmHg 70%
    19:00 +20°C° 0 mm 4 m/s 754 mmHg 77%
    20:00 +17°C° 0 mm 5 m/s 755 mmHg 84%
    21:00 +16°C° 0 mm 6 m/s 756 mmHg 91%
    22:00 +16°C° 0 mm 5 m/s 756 mmHg 92%
    23:00 +15°C° 0 mm 4 m/s 756 mmHg 93%

    Amanhã, 3 Junho, Quarta-feira

    Tempo Temperatura Precipitação Vento Pressão Humidade
    00:00 +16°C° 0 mm 3 m/s 756 mmHg 94%
    01:00 +16°C° 0 mm 3 m/s 756 mmHg 93%
    02:00 +15°C° 0 mm 4 m/s 756 mmHg 93%
    03:00 +14°C° 0 mm 4 m/s 756 mmHg 93%
    04:00 +16°C° 0 mm 3 m/s 756 mmHg 91%
    05:00 +16°C° 0 mm 3 m/s 756 mmHg 90%
    06:00 +16°C° 0 mm 2 m/s 756 mmHg 89%
    07:00 +19°C° 0.1 mm 2 m/s 756 mmHg 81%
    08:00 +21°C° 0.1 mm 2 m/s 755 mmHg 72%
    09:00 +24°C° 0.1 mm 1 m/s 755 mmHg 64%
    10:00 +24°C° 0.2 mm 2 m/s 755 mmHg 67%
    11:00 +22°C° 0.2 mm 3 m/s 755 mmHg 69%
    12:00 +22°C° 0.2 mm 3 m/s 755 mmHg 72%
    13:00 +22°C° 0.4 mm 4 m/s 755 mmHg 73%
    14:00 +22°C° 0.4 mm 4 m/s 755 mmHg 74%
    15:00 +22°C° 0.4 mm 5 m/s 755 mmHg 75%
    16:00 +21°C° 0.4 mm 5 m/s 756 mmHg 80%
    17:00 +20°C° 0.4 mm 4 m/s 756 mmHg 84%
    18:00 +19°C° 0.4 mm 4 m/s 757 mmHg 88%
    19:00 +18°C° 0.1 mm 3 m/s 758 mmHg 91%
    20:00 +17°C° 0.1 mm 2 m/s 758 mmHg 93%
    21:00 +18°C° 0.1 mm 1 m/s 759 mmHg 95%
    22:00 +16°C° 0 mm 1 m/s 759 mmHg 96%
    23:00 +16°C° 0 mm 2 m/s 759 mmHg 96%

    Depois de amanhã, 4 Junho, Quinta-feira

    Tempo Temperatura Precipitação Vento Pressão Humidade
    00:00 +16°C° 0 mm 3 m/s 760 mmHg 96%
    01:00 +14°C° 0 mm 3 m/s 759 mmHg 97%
    02:00 +14°C° 0 mm 4 m/s 759 mmHg 97%
    03:00 +14°C° 0 mm 4 m/s 759 mmHg 97%
    04:00 +14°C° 0 mm 4 m/s 759 mmHg 95%
    05:00 +15°C° 0 mm 4 m/s 759 mmHg 93%
    06:00 +15°C° 0 mm 5 m/s 759 mmHg 92%
    07:00 +19°C° 0 mm 4 m/s 758 mmHg 80%
    08:00 +22°C° 0 mm 4 m/s 758 mmHg 69%
    09:00 +26°C° 0 mm 3 m/s 757 mmHg 58%
    10:00 +28°C° 0 mm 4 m/s 757 mmHg 50%
    11:00 +30°C° 0 mm 4 m/s 757 mmHg 43%
    12:00 +33°C° 0 mm 4 m/s 757 mmHg 36%
    13:00 +30°C° 0 mm 5 m/s 757 mmHg 44%
    14:00 +28°C° 0 mm 5 m/s 757 mmHg 53%
    15:00 +26°C° 0 mm 6 m/s 757 mmHg 62%
    16:00 +23°C° 0 mm 6 m/s 758 mmHg 68%
    17:00 +22°C° 0 mm 6 m/s 759 mmHg 75%
    18:00 +21°C° 0 mm 6 m/s 759 mmHg 81%
    19:00 +20°C° 0.3 mm 4 m/s 760 mmHg 86%
    20:00 +19°C° 0.3 mm 3 m/s 761 mmHg 91%
    21:00 +17°C° 0.3 mm 2 m/s 762 mmHg 96%
    22:00 +17°C° 0.1 mm 2 m/s 762 mmHg 96%
    23:00 +17°C° 0.1 mm 2 m/s 763 mmHg 96%

    5 Junho, Sexta-feira

    Tempo Temperatura Precipitação Vento Pressão Humidade
    00:00 +16°C° 0.1 mm 2 m/s 763 mmHg 97%
    01:00 +16°C° 0.1 mm 2 m/s 763 mmHg 97%
    02:00 +17°C° 0.1 mm 2 m/s 763 mmHg 97%
    03:00 +17°C° 0.1 mm 2 m/s 763 mmHg 97%
    04:00 +17°C° 0 mm 2 m/s 763 mmHg 97%
    05:00 +17°C° 0 mm 2 m/s 763 mmHg 96%
    06:00 +17°C° 0 mm 2 m/s 763 mmHg 96%
    07:00 +19°C° 0 mm 2 m/s 763 mmHg 87%
    08:00 +21°C° 0 mm 2 m/s 763 mmHg 78%
    09:00 +24°C° 0 mm 1 m/s 763 mmHg 69%
    10:00 +25°C° 0 mm 2 m/s 763 mmHg 65%
    11:00 +26°C° 0 mm 2 m/s 763 mmHg 60%
    12:00 +27°C° 0 mm 2 m/s 763 mmHg 56%
    13:00 +26°C° 0 mm 2 m/s 763 mmHg 56%
    14:00 +26°C° 0 mm 2 m/s 762 mmHg 57%
    15:00 +26°C° 0 mm 3 m/s 762 mmHg 57%
    16:00 +25°C° 0 mm 2 m/s 762 mmHg 62%
    17:00 +24°C° 0 mm 2 m/s 762 mmHg 66%
    18:00 +23°C° 0 mm 2 m/s 762 mmHg 71%
    19:00 +21°C° 0 mm 2 m/s 763 mmHg 77%
    20:00 +19°C° 0 mm 2 m/s 763 mmHg 83%
    21:00 +18°C° 0 mm 1 m/s 764 mmHg 89%
    22:00 +18°C° 0 mm 1 m/s 764 mmHg 90%
    23:00 +16°C° 0 mm 1 m/s 764 mmHg 90%

    6 Junho, Sábado

    Tempo Temperatura Precipitação Vento Pressão Humidade
    00:00 +16°C° 0 mm 1 m/s 763 mmHg 90%
    01:00 +16°C° 0 mm 1 m/s 763 mmHg 91%
    02:00 +16°C° 0 mm 2 m/s 763 mmHg 92%
    03:00 +16°C° 0 mm 2 m/s 763 mmHg 93%
    04:00 +16°C° 0 mm 3 m/s 763 mmHg 91%
    05:00 +17°C° 0 mm 3 m/s 763 mmHg 89%
    06:00 +18°C° 0 mm 3 m/s 762 mmHg 87%
    07:00 +20°C° 0 mm 3 m/s 762 mmHg 75%
    08:00 +24°C° 0 mm 3 m/s 762 mmHg 64%
    09:00 +27°C° 0 mm 3 m/s 761 mmHg 52%
    10:00 +29°C° 0 mm 3 m/s 761 mmHg 46%
    11:00 +31°C° 0 mm 3 m/s 761 mmHg 40%
    12:00 +35°C° 0 mm 3 m/s 761 mmHg 34%
    13:00 +34°C° 0 mm 3 m/s 761 mmHg 35%
    14:00 +34°C° 0 mm 3 m/s 760 mmHg 36%
    15:00 +33°C° 0 mm 3 m/s 760 mmHg 37%
    16:00 +31°C° 0 mm 2 m/s 760 mmHg 45%
    17:00 +29°C° 0 mm 2 m/s 760 mmHg 52%
    18:00 +27°C° 0 mm 1 m/s 760 mmHg 59%
    19:00 +25°C° 0 mm 1 m/s 760 mmHg 62%
    20:00 +23°C° 0 mm 1 m/s 761 mmHg 65%
    21:00 +21°C° 0 mm 1 m/s 761 mmHg 67%
    22:00 +19°C° 0 mm 2 m/s 761 mmHg 72%
    23:00 +19°C° 0 mm 3 m/s 761 mmHg 76%

    7 Junho, Domingo

    Tempo Temperatura Precipitação Vento Pressão Humidade
    00:00 +19°C° 0 mm 3 m/s 761 mmHg 80%
    01:00 +19°C° 0 mm 4 m/s 761 mmHg 76%
    02:00 +19°C° 0 mm 4 m/s 760 mmHg 73%
    03:00 +19°C° 0 mm 5 m/s 760 mmHg 70%
    04:00 +19°C° 0 mm 5 m/s 760 mmHg 67%
    05:00 +20°C° 0 mm 5 m/s 760 mmHg 64%
    06:00 +21°C° 0 mm 5 m/s 760 mmHg 61%
    07:00 +25°C° 0 mm 5 m/s 759 mmHg 56%
    08:00 +28°C° 0 mm 5 m/s 759 mmHg 50%
    09:00 +30°C° 0 mm 5 m/s 759 mmHg 45%
    10:00 +33°C° 0 mm 4 m/s 759 mmHg 40%
    11:00 +35°C° 0 mm 3 m/s 759 mmHg 35%
    12:00 +37°C° 0 mm 3 m/s 759 mmHg 30%
    13:00 +38°C° 0 mm 3 m/s 759 mmHg 26%
    14:00 +40°C° 0 mm 4 m/s 759 mmHg 22%
    15:00 +40°C° 0 mm 5 m/s 759 mmHg 19%
    16:00 +35°C° 0 mm 5 m/s 759 mmHg 34%
    17:00 +29°C° 0 mm 6 m/s 759 mmHg 49%
    18:00 +24°C° 0 mm 6 m/s 760 mmHg 65%
    19:00 +22°C° 0 mm 6 m/s 760 mmHg 72%
    20:00 +21°C° 0 mm 6 m/s 761 mmHg 79%
    21:00 +19°C° 0 mm 5 m/s 761 mmHg 87%
    22:00 +19°C° 0 mm 5 m/s 762 mmHg 89%
    23:00 +18°C° 0 mm 4 m/s 762 mmHg 91%
    Mostrar mais